| time (UTC) | temp C | wind direction | speed KPH | gust KPH | rain 1hr cm | rain 24hr cm | rain mn cm | humidity % | barometer mb |
| 20260504221335 | 23 | 200 | 8.0 | 25.7 | 0.00 | 0.00 | 0.00 | 39 | 1006.8 |
| 20260504220315 | 23 | 171 | 9.7 | 19.3 | 0.00 | 0.00 | 0.00 | 38 | 1006.8 |
| 20260504215322 | 24 | 142 | 8.0 | 24.1 | 0.00 | 0.00 | 0.00 | 38 | 1006.8 |
| 20260504214335 | 23 | 153 | 8.0 | 19.3 | 0.00 | 0.00 | 0.00 | 38 | 1006.8 |
| 20260504213325 | 23 | 167 | 9.7 | 22.5 | 0.00 | 0.00 | 0.00 | 37 | 1006.8 |
| 20260504212332 | 24 | 194 | 8.0 | 19.3 | 0.00 | 0.00 | 0.00 | 38 | 1006.8 |
| 20260504211336 | 24 | 154 | 6.4 | 27.4 | 0.00 | 0.00 | 0.00 | 38 | 1006.8 |
| 20260504210329 | 25 | 145 | 12.9 | 25.7 | 0.00 | 0.00 | 0.00 | 34 | 1006.9 |
| 20260504205354 | 25 | 192 | 9.7 | 17.7 | 0.00 | 0.00 | 0.00 | 33 | 1006.7 |
| 20260504204339 | 25 | 243 | 9.7 | 24.1 | 0.00 | 0.00 | 0.00 | 36 | 1006.8 |
| 20260504203353 | 24 | 194 | 14.5 | 25.7 | 0.00 | 0.00 | 0.00 | 36 | 1006.9 |
| 20260504202339 | 23 | 202 | 11.3 | 17.7 | 0.00 | 0.00 | 0.00 | 36 | 1007.1 |
| 20260504201315 | 25 | 205 | 6.4 | 20.9 | 0.00 | 0.00 | 0.00 | 36 | 1007.1 |
| 20260504200317 | 24 | 179 | 11.3 | 24.1 | 0.00 | 0.00 | 0.00 | 38 | 1007.4 |
| 20260504195339 | 24 | 178 | 8.0 | 19.3 | 0.00 | 0.00 | 0.00 | 36 | 1007.6 |
| 20260504194314 | 24 | 211 | 9.7 | 20.9 | 0.00 | 0.00 | 0.00 | 36 | 1007.6 |
| 20260504193318 | 24 | 218 | 8.0 | 19.3 | 0.00 | 0.00 | 0.00 | 37 | 1008.0 |
| 20260504192317 | 23 | 154 | 11.3 | 20.9 | 0.00 | 0.00 | 0.00 | 36 | 1008.2 |
| 20260504191340 | 24 | 186 | 8.0 | 25.7 | 0.00 | 0.00 | 0.00 | 36 | 1008.3 |
| 20260504190338 | 23 | 215 | 8.0 | 17.7 | 0.00 | 0.00 | 0.00 | 38 | 1008.3 |
| 20260504185331 | 24 | 252 | 8.0 | 17.7 | 0.00 | 0.00 | 0.00 | 37 | 1008.5 |
| 20260504184314 | 23 | 166 | 11.3 | 20.9 | 0.00 | 0.00 | 0.00 | 39 | 1008.7 |
| 20260504183314 | 23 | 186 | 6.4 | 22.5 | 0.00 | 0.00 | 0.00 | 38 | 1008.8 |
| 20260504182332 | 24 | 188 | 11.3 | 24.1 | 0.00 | 0.00 | 0.00 | 39 | 1009.1 |
| 20260504181336 | 23 | 209 | 9.7 | 22.5 | 0.00 | 0.00 | 0.00 | 36 | 1009.2 |
| 20260504180337 | 23 | 154 | 12.9 | 24.1 | 0.00 | 0.00 | 0.00 | 37 | 1009.4 |
| 20260504175333 | 23 | 130 | 12.9 | 27.4 | 0.00 | 0.00 | 0.00 | 38 | 1009.5 |
| 20260504174338 | 23 | 138 | 8.0 | 17.7 | 0.00 | 0.00 | 0.00 | 41 | 1009.5 |
| 20260504173349 | 23 | 194 | 8.0 | 22.5 | 0.00 | 0.00 | 0.00 | 39 | 1009.9 |
| 20260504172329 | 22 | 196 | 11.3 | 22.5 | 0.00 | 0.00 | 0.00 | 39 | 1010.0 |
| 20260504171315 | 22 | 153 | 8.0 | 16.1 | 0.00 | 0.00 | 0.00 | 38 | 1010.2 |
| 20260504170333 | 22 | 237 | 9.7 | 17.7 | 0.00 | 0.00 | 0.00 | 39 | 1010.2 |
| 20260504160338 | 21 | 242 | 6.4 | 12.9 | 0.00 | 0.00 | 0.00 | 39 | 1011.1 |
| 20260504150333 | 20 | 207 | 8.0 | 22.5 | 0.00 | 0.00 | 0.00 | 43 | 1011.7 |
| 20260504141316 | 18 | 155 | 11.3 | 22.5 | 0.00 | 0.00 | 0.00 | 41 | 1012.0 |
| 20260504140318 | 18 | 208 | 9.7 | 17.7 | 0.00 | 0.00 | 0.00 | 41 | 1011.9 |
| 20260504130336 | 15 | 169 | 8.0 | 22.5 | 0.00 | 0.00 | 0.00 | 42 | 1012.0 |
| 20260504120315 | 13 | 157 | 8.0 | 16.1 | 0.00 | 0.00 | 0.00 | 48 | 1012.3 |
| 20260504110316 | 9 | 198 | 4.8 | 12.9 | 0.00 | 0.00 | 0.00 | 60 | 1012.7 |
| 20260504100315 | 6 | 196 | 0.0 | 3.2 | 0.00 | 0.00 | 0.00 | 77 | 1012.6 |
| 20260504081334 | 6 | 5 | 0.0 | 0.0 | 0.00 | 0.00 | 0.00 | 76 | 1012.9 |
| 20260504080349 | 6 | 5 | 0.0 | 1.6 | 0.00 | 0.00 | 0.00 | 76 | 1012.9 |
| 20260504070321 | 6 | 296 | 0.0 | 3.2 | 0.00 | 0.00 | 0.00 | 72 | 1013.2 |
| 20260504050332 | 5 | 161 | 3.2 | 8.0 | 0.00 | 0.00 | 0.00 | 75 | 1013.6 |
| 20260504045315 | 5 | 175 | 0.0 | 0.0 | 0.00 | 0.00 | 0.00 | 76 | 1013.7 |
| 20260504044318 | 5 | 175 | 0.0 | 6.4 | 0.00 | 0.00 | 0.00 | 75 | 1013.8 |
| 20260504043352 | 5 | 138 | 0.0 | 0.0 | 0.00 | 0.00 | 0.00 | 75 | 1013.7 |
| 20260504042336 | 5 | 138 | 0.0 | 0.0 | 0.00 | 0.00 | 0.00 | 73 | 1013.7 |
| 20260504041338 | 5 | 138 | 0.0 | 1.6 | 0.00 | 0.00 | 0.00 | 73 | 1013.6 |
| 20260504040317 | 5 | 138 | 0.0 | 0.0 | 0.00 | 0.00 | 0.00 | 74 | 1013.6 |
| 20260504035317 | 6 | 138 | 0.0 | 1.6 | 0.00 | 0.00 | 0.00 | 73 | 1013.4 |
| 20260504034316 | 6 | 138 | 0.0 | 3.2 | 0.00 | 0.00 | 0.00 | 74 | 1013.4 |
| 20260504033347 | 5 | 138 | 0.0 | 1.6 | 0.00 | 0.00 | 0.00 | 73 | 1013.4 |
| 20260504032321 | 6 | 138 | 0.0 | 1.6 | 0.00 | 0.00 | 0.00 | 73 | 1013.4 |
| 20260504031321 | 6 | 138 | 1.6 | 4.8 | 0.00 | 0.00 | 0.00 | 72 | 1013.4 |
| 20260504030322 | 6 | 12 | 1.6 | 6.4 | 0.00 | 0.00 | 0.00 | 71 | 1013.3 |
| 20260504025313 | 6 | 258 | 1.6 | 3.2 | 0.00 | 0.00 | 0.00 | 70 | 1013.4 |
| 20260504024316 | 6 | 181 | 1.6 | 4.8 | 0.00 | 0.00 | 0.00 | 69 | 1013.3 |
| 20260504023314 | 7 | 135 | 0.0 | 1.6 | 0.00 | 0.00 | 0.00 | 68 | 1013.2 |
| 20260504022337 | 7 | 135 | 0.0 | 3.2 | 0.00 | 0.00 | 0.00 | 68 | 1013.2 |
| 20260504021315 | 7 | 135 | 0.0 | 0.0 | 0.00 | 0.00 | 0.00 | 66 | 1013.1 |
| 20260504020314 | 7 | 135 | 0.0 | 1.6 | 0.00 | 0.00 | 0.00 | 65 | 1013.1 |
| 20260504015313 | 7 | 135 | 0.0 | 1.6 | 0.00 | 0.00 | 0.00 | 64 | 1013.0 |
| 20260504014319 | 7 | 135 | 0.0 | 0.0 | 0.00 | 0.00 | 0.00 | 63 | 1013.0 |
| 20260504013317 | 8 | 135 | 0.0 | 3.2 | 0.00 | 0.00 | 0.00 | 60 | 1012.9 |
| 20260504012322 | 8 | 135 | 0.0 | 1.6 | 0.00 | 0.00 | 0.00 | 57 | 1012.7 |
| 20260504011335 | 9 | 135 | 0.0 | 3.2 | 0.00 | 0.00 | 0.00 | 55 | 1012.7 |
| 20260504010333 | 10 | 135 | 1.6 | 3.2 | 0.00 | 0.00 | 0.00 | 55 | 1012.7 |
| 20260504005316 | 10 | 135 | 3.2 | 3.2 | 0.00 | 0.00 | 0.00 | 53 | 1012.7 |
| 20260504004313 | 10 | 135 | 0.0 | 4.8 | 0.00 | 0.00 | 0.00 | 52 | 1012.6 |
| 20260504003339 | 10 | 146 | 3.2 | 4.8 | 0.00 | 0.00 | 0.00 | 51 | 1012.6 |
| 20260504002358 | 11 | 130 | 3.2 | 4.8 | 0.00 | 0.00 | 0.00 | 48 | 1012.5 |
| 20260504001312 | 12 | 150 | 3.2 | 3.2 | 0.00 | 0.00 | 0.00 | 46 | 1012.4 |
| 20260504000337 | 13 | 161 | 3.2 | 6.4 | 0.00 | 0.00 | 0.00 | 42 | 1012.4 |
| 20260503235312 | 13 | 257 | 1.6 | 6.4 | 0.00 | 0.00 | 0.00 | 35 | 1012.3 |
| 20260503234336 | 14 | 303 | 4.8 | 8.0 | 0.00 | 0.00 | 0.00 | 35 | 1012.2 |
| 20260503233314 | 15 | 294 | 3.2 | 12.9 | 0.00 | 0.00 | 0.00 | 34 | 1012.1 |
| 20260503232312 | 15 | 290 | 4.8 | 16.1 | 0.00 | 0.00 | 0.00 | 33 | 1012.1 |
| 20260503231314 | 16 | 282 | 6.4 | 16.1 | 0.00 | 0.00 | 0.00 | 33 | 1012.1 |
| 20260503230337 | 16 | 286 | 9.7 | 14.5 | 0.00 | 0.00 | 0.00 | 33 | 1011.9 |
| 20260503225337 | 16 | 279 | 6.4 | 14.5 | 0.00 | 0.00 | 0.00 | 33 | 1011.8 |
| 20260503224329 | 16 | 290 | 6.4 | 16.1 | 0.00 | 0.00 | 0.00 | 35 | 1011.9 |
| 20260503223328 | 16 | 302 | 11.3 | 19.3 | 0.00 | 0.00 | 0.00 | 33 | 1011.9 |
| 20260503222334 | 16 | 285 | 11.3 | 17.7 | 0.00 | 0.00 | 0.00 | 31 | 1012.0 |